LAOSAT 1 (41034 NORAD) Tracking and Keplerian Element Data

This shows tracking and keplerian element data for the satellite.

Feedback or suggestion? Click here.




ElementValue
Catalog41034
NameLAOSAT 1
Epoch Orbit2148
Epoch Day261.90239898
Epoch Year2021
RAAN19.0445
Inclination0.04
Eccentricity0.0001628
Argument of Perigee139.2179
Mean Anonmoly293.1484
Mean Motion1.00271764
Decay Rate-3.67E-06
L11 41034U 15067A 21261.90239898 -.00000367 00000-0 00000-0 0 9998
L22 41034 0.0400 19.0445 0001628 139.2179 293.1484 1.00271764 21484

Live tracking and technical data element details for LAOSAT 1 (NORAD 41034). LAOSAT 1 can be tracked NOW for your location showing map with azimuth and elevation plus other details from your city location.

Track the satellite on the map from your city or location and see movement details for azimuth, elevation, latitude, longitude, range, height, and movement on the map or in text.







IsCatalogInMostPopularTable: catalog: 41034, numindb: 565
Update: records affected: 1



GetName: 41034 LAOSAT 1

Hit Count: updated at: Sat, 25 Sep 2021 23:44:42 GMT